Regional Weather Roundup
Issued by NWS Goodland, KS

Home | Current Version | Previous Version | Graphics & Text | Print | Product List | Glossary On
Versions: 1 2 3 4 5 6 7 8 9 10 11 12 13 14 15 16 17 18 19 20 21 22 23 24 25 26 27 28 29 30 31 32 33 34 35 36 37 38 39 40 41 42 43 44 45 46 47 48 49 50
350
ASUS43 KGLD 261459
RWRGLD

GOODLAND FORECAST AREA HOURLY WEATHER ROUNDUP
NATIONAL WEATHER SERVICE GOODLAND KS
900 AM MDT THU MAY 26 2016

...OFFICIAL OBSERVATIONS...

CITY           SKY/WX    TMP DP  RH WIND       PRES   REMARKS
GOODLAND KS    PTSUNNY   67  48  50 E12G20    29.89F
HILL CITY KS   CLOUDY    66  54  65 E16       29.85F
IMPERIAL NEB   CLOUDY    65  50  58 N16       29.92F
MCCOOK NEB     PTSUNNY   65  54  67 N10       29.89R
AKRON CO       PTSUNNY   62  43  49 N7        29.96F
BURLINGTON CO  MOSUNNY   66  50  56 E12       29.91F
LIMON CO       CLOUDY    60  45  57 NE9       29.98F
$$

...UNOFFICIAL OBSERVATIONS...

CITY           SKY/WX    TMP DP  RH WIND       PRES   REMARKS
GOVE KS          N/A     62  32  32 MISG        N/A
LENORA KS        N/A     66  32  28 MISG        N/A
SHARON SPRINGS   N/A     62  57  84 NE6         N/A
KIT CARSON CO    N/A     61  53  73 MISG        N/A
YUMA CO          N/A     62  50  64 CALM        N/A
$$




USA.gov is the U.S. government's official web portal to all federal, state and local government web resources and services.